Location: Shepherdstown, WV
(39.4326°N, 77.8042°W)
Time: 02:55:38
(UTC-04:00)

Tiros 1 despin weight - Pass Details

Date: 28 July 2021
Orbit: 593 x 641 km, 48.2° (Epoch: 26 September)

Event Time Altitude Azimuth Distance (km) Brightness Sun altitude
Rises 20:45:25 0° 302° (WNW) 2,938 ? -4.0°
Reaches altitude 10° 20:47:49 10° 306° (NW) 2,023 ? -4.4°
Maximum altitude 20:52:24 56° 25° (NNE) 751 ? -5.1°
Drops below altitude 10° 20:56:55 10° 104° (ESE) 1,991 ? -5.9°
Enters shadow 20:57:39 - 106° (ESE) 2,270 ? -6.0°
